Regional Weather Roundup
Issued by NWS

Home | Current Version | Previous Version | Text Only | Print | Product List | Glossary On
Versions: 1 2 3 4 5 6 7 8 9 10 11 12 13 14 15 16 17 18 19 20 21 22 23 24 25 26 27 28 29 30 31 32 33 34 35 36 37 38 39 40 41 42 43 44 45 46 47 48 49 50
000
ASUS45 KREV 020010
RWRNV
NEVADA REGIONAL WEATHER ROUNDUP
NATIONAL WEATHER SERVICE RENO NV
500 PM PDT FRI AUG 01 2014

NOTE: "FAIR" INDICATES FEW OR NO CLOUDS BELOW 12,000 FEET WITH NO
SIGNIFICANT WEATHER AND/OR OBSTRUCTIONS TO VISIBILITY.

NVZ001-003-004-020100-
WESTERN NEVADA

CITY           SKY/WX    TMP DP  RH WIND       PRES   REMARKS
RENO           MOSUNNY   93  41  16 NW3       30.03F
6HR MIN TEMP:  85; 6HR MAX TEMP:  95; 6HR PCP: TRACE;

CARSON CITY    FAIR      91  28  10 W17G24    30.07F
SLIDE MTN        N/A     70  41  35 SW14        N/A
PYRAMID LAKE     N/A     86 N/A N/A NE3         N/A
FALLON         PTSUNNY   97  40  14 NW10      29.98F
6HR MIN TEMP:  85; 6HR MAX TEMP:  97;

LOVELOCK       PTSUNNY   94  37  13 W8        29.99F
6HR MIN TEMP:  86; 6HR MAX TEMP:  97; 6HR PCP: TRACE;

HAWTHORNE      MOSUNNY   90  43  19 NW9G16    30.02F
$$

NVZ002-CAZ072-073-020100-
NORTHERN AND CENTRAL SIERRA

CITY           SKY/WX    TMP DP  RH WIND       PRES   REMARKS
S. LAKE TAHOE  SUNNY     85  30  13 VRB6G18   30.22S
6HR MIN TEMP:  76; 6HR MAX TEMP:  87;

TRUCKEE        MOSUNNY   84  34  16 W15G21    30.20S
                   6HR MAX TEMP:  86;

SQUAW VLY 8000 NOT AVBL
SUSANVILLE     SUNNY     91  37  15 SW15G23   30.04F
BLUE CANYON    SUNNY     84  25  11 SW9G16    30.20F
MAMMOTH LAKES  CLOUDY    79  36  21 W18G25    30.28S
BRIDGEPORT     FAIR      84  32  15 SW10G22   30.22F
$$

NVZ030-031-036-020100-
NORTHERN NEVADA

CITY           SKY/WX    TMP DP  RH WIND       PRES   REMARKS
ELKO           MOSUNNY   90  29  11 NE5       30.11F
6HR MIN TEMP:  77; 6HR MAX TEMP:  93;

WINNEMUCCA     MOSUNNY   92  38  15 E8        30.03F
6HR MIN TEMP:  85; 6HR MAX TEMP:  96;

WENDOVER       SUNNY     90  39  17 SE7       30.08F
$$

NVZ035-037-020100-
CENTRAL NEVADA

CITY           SKY/WX    TMP DP  RH WIND       PRES   REMARKS
ELY            PTSUNNY   87  33  14 N10       30.20F
6HR MIN TEMP:  76; 6HR MAX TEMP:  88;

EUREKA           N/A     73  45  36 SW18G26   30.23R
6HR MIN TEMP:  73; 6HR MAX TEMP:  91;

$$

NVZ013-014-020100-
SOUTH CENTRAL NEVADA

CITY           SKY/WX    TMP DP  RH WIND       PRES   REMARKS
TONOPAH        CLOUDY    91  37  15 W8G18     30.09F
6HR MIN TEMP:  84; 6HR MAX TEMP:  93; 6HR PCP: TRACE;

$$

NVZ017-020-022-020100-
SOUTHERN NEVADA

CITY           SKY/WX    TMP DP  RH WIND       PRES   REMARKS
LAS VEGAS      MOSUNNY  104  51  17 S13       29.81F
6HR MIN TEMP:  96; 6HR MAX TEMP: 107;

N. LAS VEGAS   MOSUNNY  104  47  14 CALM      29.84F
6HR MIN TEMP:  95; 6HR MAX TEMP: 105;

NELLIS AFB     MOSUNNY  105  52  17 W7        29.82F
6HR MIN TEMP:  96; 6HR MAX TEMP: 105;

HENDERSON      PTSUNNY  104  52  17 SE8       29.88F
6HR MIN TEMP:  95; 6HR MAX TEMP: 105;

MERCURY        SUNNY    103  38  10 SW13G20   29.92F
6HR MIN TEMP:  93; 6HR MAX TEMP: 104;

$$



USA.gov is the U.S. government's official web portal to all federal, state and local government web resources and services.